Regional Weather Roundup
Issued by NWS Kansas City/Pleasant Hill, MO

Home | Current Version | Previous Version | Text Only | Print | Product List | Glossary On
Versions: 1 2 3 4 5 6 7 8 9 10 11 12 13 14 15 16 17 18 19 20 21 22 23 24 25 26 27 28 29 30 31 32 33 34 35 36 37 38 39 40 41 42 43 44 45 46 47 48 49 50
000
ASUS43 KEAX 180910
RWREAX

WEATHER ROUNDUP FOR EASTERN KANSAS AND NORTHWEST MISSOURI
NATIONAL WEATHER SERVICE KANSAS CITY/PLEASANT HILL MO
400 AM CDT FRI APR 18 2014

KSZ040-057-103>105-MOZ028-029-037-043-181000-
...KANSAS CITY METROPOLITAN AREA...

CITY           SKY/WX    TMP DP  RH WIND       PRES   REMARKS
K.C. INTL      PTCLDY    37  32  82 CALM      30.27F
K.C. DOWNTOWN  CLEAR     38  34  85 CALM      30.28S
LEES SUMMIT    CLEAR     38  33  82 CALM      30.28R
OLATHE - IXD   CLEAR     32  30  92 CALM      30.28S FOG
OLATHE - OJC   CLEAR     34  31  88 CALM      30.27R FOG
LAWRENCE       CLEAR     29  27  92 CALM      30.28S FOG

$$

MOZ001>008-011>017-020>025-030>033-038>040-044>046-053-054-181000-
...NORTHERN AND CENTRAL MISSOURI...

CITY           SKY/WX    TMP DP  RH WIND       PRES   REMARKS
ST. JOSEPH     CLEAR     33  29  85 CALM      30.28S
MOSBY            N/A     32  32 100 CALM      30.28S FOG
WARRENSBURG    FOG      N/A N/A N/A CALM      30.30R VSB 1/2
WHITEMAN AFB   CLEAR     35  32  88 N1        30.28R
CLINTON        CLEAR     36  36 100 CALM      30.28F FOG
SEDALIA        CLEAR     39  37  92 CALM      30.29R FOG
WARSAW         NOT AVBL
MARSHALL         N/A     41  37  87 CALM      30.30
CHILLICOTHE      N/A     31  28  89 CALM      30.30S
MOBERLY        CLEAR     36  32  87 CALM      30.29S FOG
KIRKSVILLE     CLEAR     31  29  92 N3        30.29S

$$

MOZ041-047>049-056>058-063>065-088>090-097-181000-
...EASTERN AND SOUTHERN MISSOURI...

CITY           SKY/WX    TMP DP  RH WIND       PRES   REMARKS
ST. LOUIS INTL PTCLDY    49  38  65 N3        30.27R
SPIRIT OF STL  PTCLDY    44  39  82 CALM      30.27S
COLUMBIA       CLOUDY    44  40  85 N3        30.28S
JEFFERSON CITY PTCLDY    45  39  79 NW5       30.28F
MEXICO         CLEAR    N/A N/A N/A N5        30.28S
HANNIBAL       CLEAR     41  36  81 NW3       30.29R
ROLLA          MOCLDY    41  38  89 CALM      30.25S
LEBANON        PTCLDY    43  37  81 NE5       30.25S
OSAGE BEACH    CLOUDY    43  37  81 CALM      30.27F
SPRINGFIELD    PTCLDY    43  38  82 N5        30.23F
BRANSON        CLOUDY    46  41  81 CALM      30.24R
NEVADA         CLEAR     36  36 100 N6        30.28F FOG     WCI  31
JOPLIN         CLOUDY    42  39  89 N3        30.26R
WEST PLAINS    CLOUDY    50  39  66 CALM      30.25R

$$

IAZ060-094-KSZ022-034>040-054-083-096-NEZ052-066-093-181000-
...KANSAS...SOUTHEAST NEBRASKA AND IOWA...

CITY           SKY/WX    TMP DP  RH WIND       PRES   REMARKS
TOPEKA         CLEAR     35  30  82 CALM      30.28S HAZE
MANHATTAN      CLOUDY    30  28  92 CALM      30.26S FOG
EMPORIA        CLEAR     30  29  96 CALM      30.26S FOG
CHANUTE        FOG       34  32  92 N3        30.27S VSB 1
WICHITA        PTCLDY    35  32  88 CALM      30.25F FOG
OMAHA          PTCLDY    33  27  78 CALM      30.26S
LINCOLN        CLEAR     38  27  64 S3        30.26S
FALLS CITY     CLEAR     33  30  88 E3        30.26F
LAMONI         CLEAR     39  31  72 W5        30.27S
DES MOINES     PTCLDY    36  29  75 E3        30.30S

$$




USA.gov is the U.S. government's official web portal to all federal, state and local government web resources and services.